Location: Newark
(7.0858°N, 171.3717°E)
Time: 08:50:51
(UTC+00:00)

S-56A Canister/Altair - Pass Details

Date: 02 December 2020
Orbit: 633 x 2499 km, 38.9° (Epoch: 27 January)

Event Time Altitude Azimuth Distance (km) Brightness Sun altitude
Rises 03:29:30 0° 223° (SW) 5,912 13.0 36.1°
Reaches altitude 10° 03:33:12 10° 222° (SW) 5,028 12.9 35.3°
Maximum altitude 03:48:16 76° 138° (SE) 2,518 10.6 32.1°
Drops below altitude 10° 04:01:54 10° 54° (NE) 4,607 11.0 29.2°
Sets 04:05:07 0° 53° (NE) 5,414 11.3 28.5°
